Weather History for Carbondale, IL

Change the Weather History Date:

Sunday, March 9, 2014

  Actual Average Record
Temperature  
Mean Temperature 39 °F -  
Max Temperature 50 °F 54 °F 81 °F (1911)
Min Temperature 28 °F 32 °F 10 °F (1932)
Degree Days  
Heating Degree Days 26    
Moisture  
Dew Point 30 °F    
Average Humidity 78    
Maximum Humidity 93    
Minimum Humidity 48    
Precipitation  
Precipitation 0.00 in - - ()
Sea Level Pressure  
Sea Level Pressure 30.26 in    
Wind  
Wind Speed 4 mph (SSW)    
Max Wind Speed 14 mph    
Max Gust Speed -    
Visibility 5 miles    
Events      
Averages and records for this station are not official NWS values.
T = Trace of Precipitation, MM = Missing Value Source: NWS Daily Summary

Daily Weather History Graph

Daily Weather History Graph

Search for Another Location

Airport:

Trip Planner

Search our weather history database for the weather conditions in past years. The results will help you decide how hot, cold, wet, or windy it might be!

Date:

Astronomy

Mar. 09, 2014 Rise Set
Actual Time 7:17 AM CDT 6:58 PM CDT
Civil Twilight 6:50 AM CDT 7:24 PM CDT
Nautical Twilight 6:20 AM CDT 7:55 PM CDT
Astronomical Twilight 5:49 AM CDT 8:25 PM CDT
Moon 12:55 PM CDT (3/9) 3:38 AM CDT (3/9)
Length of Visible Light 12h 33m
Length of Day
11h 41m
First Quarter, 61% of the Moon is Illuminated
Mar 9
First Quarter
Mar 16
Full
Mar 23
Last Quarter
Mar 30
New
Apr 7
First Quarter

Hourly Weather History & Observations

Time (CDT) Temp. Windchill Dew Point Humidity Pressure Visibility Wind Dir Wind Speed Gust Speed Precip Events Conditions
12:52 AM 34.0 °F 28.8 °F 28.9 °F 82% 30.30 in 5.0 mi North 5.8 mph - N/A   Haze
1:52 AM 32.0 °F 28.7 °F 28.0 °F 85% 30.32 in 4.0 mi NW 3.5 mph - N/A   Clear
3:49 AM 28.4 °F - 26.6 °F 93% 30.31 in 2.5 mi Calm Calm - N/A   Clear
3:52 AM 28.9 °F - 26.1 °F 89% 30.32 in 2.5 mi Calm Calm - N/A   Clear
4:07 AM 30.0 °F - 27.0 °F 88% 30.31 in 3.0 mi Calm Calm - N/A   Clear
4:20 AM 28.9 °F 25.2 °F 26.1 °F 89% 30.31 in 2.5 mi NNW 3.5 mph - N/A   Clear
4:52 AM 30.0 °F 26.5 °F 27.0 °F 88% 30.32 in 2.5 mi NNW 3.5 mph - N/A   Scattered Clouds
5:05 AM 28.9 °F - 26.1 °F 89% 30.31 in 2.5 mi Calm Calm - N/A   Mostly Cloudy
5:52 AM 28.9 °F - 27.0 °F 92% 30.33 in 2.5 mi Calm Calm - N/A   Overcast
6:19 AM 30.0 °F - 27.0 °F 88% 30.32 in 3.0 mi Calm Calm - N/A   Overcast
6:42 AM 30.0 °F - 28.0 °F 92% 30.32 in 2.5 mi Calm Calm - N/A   Overcast
6:52 AM 30.0 °F - 28.0 °F 92% 30.33 in 2.5 mi Calm Calm - N/A   Overcast
7:28 AM 30.9 °F - 28.0 °F 89% 30.32 in 3.0 mi Calm Calm - N/A   Overcast
7:37 AM 30.9 °F - 28.9 °F 92% 30.33 in 2.0 mi Calm Calm - N/A   Overcast
7:52 AM 30.9 °F 27.5 °F 28.9 °F 92% 30.33 in 2.0 mi South 3.5 mph - N/A   Overcast
8:48 AM 33.8 °F 29.6 °F 28.4 °F 81% 30.33 in 3.0 mi SSW 4.6 mph - N/A   Overcast
8:52 AM 33.1 °F 27.7 °F 28.9 °F 85% 30.34 in 3.0 mi SSW 5.8 mph - N/A   Overcast
9:52 AM 35.1 °F - 28.9 °F 78% 30.37 in 4.0 mi Calm Calm - N/A   Haze
10:52 AM 37.0 °F - 27.0 °F 67% 30.36 in 6.0 mi Calm Calm - N/A   Haze
11:52 AM 39.0 °F 36.8 °F 28.9 °F 67% 30.34 in 6.0 mi Variable 3.5 mph - N/A   Haze
12:18 PM 39.0 °F - 30.0 °F 70% 30.31 in 7.0 mi Calm Calm - N/A   Scattered Clouds
12:52 PM 39.9 °F 37.8 °F 30.0 °F 68% 30.30 in 7.0 mi SSW 3.5 mph - N/A   Clear
1:52 PM 44.1 °F 40.1 °F 30.9 °F 60% 30.25 in 8.0 mi South 6.9 mph - N/A   Clear
2:52 PM 46.9 °F - 30.9 °F 54% 30.22 in 9.0 mi SSW 9.2 mph - N/A   Clear
3:52 PM 48.9 °F - 32.0 °F 52% 30.17 in 10.0 mi SW 12.7 mph - N/A   Clear
4:52 PM 50.0 °F - 30.9 °F 48% 30.15 in 10.0 mi South 6.9 mph - N/A   Clear
5:52 PM 48.9 °F - 34.0 °F 56% 30.12 in 10.0 mi South 10.4 mph - N/A   Clear
6:52 PM 45.0 °F 40.1 °F 33.1 °F 63% 30.12 in 9.0 mi South 9.2 mph - N/A   Clear
7:52 PM 43.0 °F 36.8 °F 32.0 °F 65% 30.12 in 10.0 mi SSW 11.5 mph - N/A   Clear
8:52 PM 42.1 °F 34.9 °F 34.0 °F 73% 30.12 in 7.0 mi SSW 13.8 mph - N/A   Clear
9:52 PM 39.0 °F 32.3 °F 33.1 °F 79% 30.11 in 6.0 mi SSW 10.4 mph - N/A   Haze
10:52 PM 37.9 °F 30.9 °F 33.1 °F 83% 30.10 in 6.0 mi SSW 10.4 mph - N/A   Haze
11:52 PM 37.9 °F 32.1 °F 34.0 °F 86% 30.09 in 6.0 mi SSW 8.1 mph - N/A   Clear
12:52 AM 37.9 °F 31.5 °F 34.0 °F 86% 30.07 in 5.0 mi SSW 9.2 mph - N/A   Clear